DW5852 Weather Reports


Display with metric or nautical units.
time (UTC)temp
F
wind
direction
speed
MPH
gust
MPH
rain 1hr
in
rain 24hr
in
rain mn
in
humidity
%
barometer
mb
20260510175757 68 139 0.0 5.0 0.00 0.00 0.00 24 1030.1
20260510175257 70 94 0.0 9.0 0.00 0.00 0.00 24 1030.0
20260510174754 71 85 0.0 6.0 0.00 0.00 0.00 22 1029.8
20260510174257 72 74 0.0 5.0 0.00 0.00 0.00 22 1030.0
20260510173757 72 126 0.0 3.0 0.00 0.00 0.00 22 1030.1
20260510173257 71 134 0.0 0.0 0.00 0.00 0.00 24 1030.0
20260510172754 69 252 0.0 15.0 0.00 0.00 0.00 25 1030.0
20260510172257 70 82 0.0 8.0 0.00 0.00 0.00 24 1030.0
20260510171754 70 84 0.0 1.0 0.00 0.00 0.00 25 1030.0
20260510171257 69 207 0.0 6.0 0.00 0.00 0.00 25 1030.1
20260510170757 69 79 1.0 2.0 0.00 0.00 0.00 25 1030.0
20260510170254 69 236 0.0 3.0 0.00 0.00 0.00 25 1030.1
20260510165754 68 172 0.0 3.0 0.00 0.00 0.00 26 1030.0
20260510165254 68 76 0.0 6.0 0.00 0.00 0.00 28 1030.0
20260510164757 68 157 2.0 10.0 0.00 0.00 0.00 27 1030.0
20260510164254 68 160 0.0 4.0 0.00 0.00 0.00 26 1030.0
20260510163757 68 110 0.0 1.0 0.00 0.00 0.00 27 1030.0
20260510163257 68 166 0.0 0.0 0.00 0.00 0.00 28 1030.0
20260510162757 68 188 0.0 4.0 0.00 0.00 0.00 27 1030.0
20260510162254 67 132 0.0 1.0 0.00 0.00 0.00 28 1029.9
20260510161757 67 139 0.0 0.0 0.00 0.00 0.00 28 1029.9
20260510161254 66 69 0.0 0.0 0.00 0.00 0.00 29 1029.9
20260510160757 66 145 0.0 0.0 0.00 0.00 0.00 28 1029.9
20260510160254 66 191 0.0 2.0 0.00 0.00 0.00 28 1029.9
20260510155757 66 155 0.0 1.0 0.00 0.00 0.00 29 1030.0
20260510155254 65 110 0.0 2.0 0.00 0.00 0.00 29 1030.0
20260510154754 65 307 0.0 0.0 0.00 0.00 0.00 28 1030.0
20260510154257 64 163 0.0 0.0 0.00 0.00 0.00 29 1030.0
20260510153757 65 64 0.0 0.0 0.00 0.00 0.00 28 1030.0
20260510153254 65 125 0.0 0.0 0.00 0.00 0.00 30 1030.1
20260510152754 64 103 0.0 2.0 0.00 0.00 0.00 30 1030.0
20260510152254 63 100 0.0 1.0 0.00 0.00 0.00 29 1030.0
20260510151754 64 98 0.0 0.0 0.00 0.00 0.00 29 1030.0
20260510151257 64 117 0.0 0.0 0.00 0.00 0.00 30 1030.1
20260510150754 63 156 0.0 1.0 0.00 0.00 0.00 31 1030.1
20260510150257 63 52 0.0 1.0 0.00 0.00 0.00 30 1030.0
20260510145757 63 94 0.0 1.0 0.00 0.00 0.00 30 1030.0
20260510145254 63 145 0.0 1.0 0.00 0.00 0.00 27 1029.9
20260510144757 64 143 0.0 0.0 0.00 0.00 0.00 27 1029.8
20260510144257 64 79 0.0 1.0 0.00 0.00 0.00 27 1029.7
20260510143754 65 162 0.0 0.0 0.00 0.00 0.00 26 1029.7
20260510143254 65 256 0.0 0.0 0.00 0.00 0.00 26 1029.6
20260510142754 64 145 0.0 0.0 0.00 0.00 0.00 26 1029.6
20260510142257 63 123 0.0 0.0 0.00 0.00 0.00 28 1029.5
20260510141754 64 68 0.0 0.0 0.00 0.00 0.00 26 1029.5
20260510141257 64 151 0.0 0.0 0.00 0.00 0.00 26 1029.5
20260510140757 64 153 0.0 0.0 0.00 0.00 0.00 24 1029.6
20260510140254 64 140 0.0 0.0 0.00 0.00 0.00 24 1029.4
20260510135754 64 142 0.0 0.0 0.00 0.00 0.00 25 1029.5
20260510135257 62 93 0.0 0.0 0.00 0.00 0.00 28 1029.4
20260510134754 62 93 0.0 0.0 0.00 0.00 0.00 27 1029.3
20260510134254 61 93 0.0 0.0 0.00 0.00 0.00 25 1029.3
20260510133754 61 194 0.0 0.0 0.00 0.00 0.00 25 1029.3
20260510133257 62 194 0.0 0.0 0.00 0.00 0.00 25 1029.3
20260510132757 61 194 0.0 0.0 0.00 0.00 0.00 26 1029.4
20260510132257 60 194 0.0 0.0 0.00 0.00 0.00 26 1029.3
20260510131757 58 194 0.0 0.0 0.00 0.00 0.00 30 1029.2
20260510131254 57 194 0.0 0.0 0.00 0.00 0.00 30 1029.2
20260510130757 56 194 0.0 0.0 0.00 0.00 0.00 31 1029.2
20260510130257 55 194 0.0 0.0 0.00 0.00 0.00 31 1029.2
20260510125754 55 194 0.0 0.0 0.00 0.00 0.00 32 1029.2
20260510125254 54 194 0.0 0.0 0.00 0.00 0.00 31 1029.2
20260510124754 54 194 0.0 0.0 0.00 0.00 0.00 32 1029.2
20260510124257 54 194 0.0 0.0 0.00 0.00 0.00 31 1029.3
20260510123754 53 194 0.0 0.0 0.00 0.00 0.00 31 1029.3
20260510123257 53 194 0.0 0.0 0.00 0.00 0.00 31 1029.4
20260510122757 53 194 0.0 0.0 0.00 0.00 0.00 32 1029.4
20260510122257 53 194 0.0 0.0 0.00 0.00 0.00 31 1029.4
20260510121754 53 194 0.0 0.0 0.00 0.00 0.00 32 1029.5
20260510121257 53 194 0.0 0.0 0.00 0.00 0.00 31 1029.6
20260510120757 54 194 0.0 0.0 0.00 0.00 0.00 30 1029.6
20260510120257 54 194 0.0 0.0 0.00 0.00 0.00 30 1029.6
20260510115757 54 193 0.0 0.0 0.00 0.00 0.00 30 1029.7
20260510115254 54 110 0.0 0.0 0.00 0.00 0.00 30 1029.7
20260510114757 55 108 0.0 0.0 0.00 0.00 0.00 30 1029.7
20260510114254 55 110 0.0 0.0 0.00 0.00 0.00 30 1029.7
20260510113757 55 107 0.0 0.0 0.00 0.00 0.00 30 1029.8
20260510113257 55 151 0.0 0.0 0.00 0.00 0.00 30 1029.8
20260510112754 54 150 0.0 0.0 0.00 0.00 0.00 30 1029.9
20260510112254 55 215 0.0 0.0 0.00 0.00 0.00 30 1029.9
20260510111757 55 215 0.0 0.0 0.00 0.00 0.00 29 1029.9
20260510111257 56 215 0.0 0.0 0.00 0.00 0.00 29 1029.9
20260510110754 56 215 0.0 0.0 0.00 0.00 0.00 29 1029.8
20260510110257 56 215 0.0 0.0 0.00 0.00 0.00 28 1029.7
20260510105754 57 248 0.0 0.0 0.00 0.00 0.00 28 1029.6
20260510105257 57 311 0.0 0.0 0.00 0.00 0.00 28 1029.7
20260510104757 57 79 0.0 0.0 0.00 0.00 0.00 28 1029.6
20260510104254 57 79 0.0 0.0 0.00 0.00 0.00 28 1029.7
20260510103757 57 79 0.0 0.0 0.00 0.00 0.00 28 1029.7
20260510103257 57 79 0.0 0.0 0.00 0.00 0.00 28 1029.7
20260510102754 57 77 0.0 0.0 0.00 0.00 0.00 28 1029.7
20260510102257 57 77 0.0 0.0 0.00 0.00 0.00 27 1029.7
20260510101757 57 77 0.0 0.0 0.00 0.00 0.00 27 1029.7
20260510101254 58 74 0.0 0.0 0.00 0.00 0.00 26 1029.7
20260510100757 58 74 0.0 0.0 0.00 0.00 0.00 26 1029.8
20260510100257 58 96 0.0 0.0 0.00 0.00 0.00 26 1029.9
20260510095754 58 153 0.0 0.0 0.00 0.00 0.00 26 1029.9
20260510095254 58 153 0.0 0.0 0.00 0.00 0.00 26 1030.0
20260510094757 59 104 0.0 0.0 0.00 0.00 0.00 25 1029.9
20260510094257 59 239 0.0 0.0 0.00 0.00 0.00 25 1029.9
20260510093757 59 239 0.0 0.0 0.00 0.00 0.00 24 1029.8
20260510093257 59 239 0.0 0.0 0.00 0.00 0.00 25 1029.7
20260510092757 59 131 0.0 0.0 0.00 0.00 0.00 24 1029.7
20260510092257 59 160 0.0 0.0 0.00 0.00 0.00 25 1029.6
20260510091757 59 152 0.0 0.0 0.00 0.00 0.00 24 1029.6
20260510091257 59 153 0.0 0.0 0.00 0.00 0.00 25 1029.8
20260510090757 59 262 0.0 0.0 0.00 0.00 0.00 25 1030.0
20260510090257 59 160 0.0 0.0 0.00 0.00 0.00 25 1029.9
20260510085757 59 143 0.0 0.0 0.00 0.00 0.00 25 1029.9
20260510085257 60 236 0.0 0.0 0.00 0.00 0.00 25 1030.0
20260510084757 60 152 0.0 0.0 0.00 0.00 0.00 24 1030.2
20260510084254 60 258 0.0 1.0 0.00 0.00 0.00 24 1030.2
20260510083757 60 166 0.0 0.0 0.00 0.00 0.00 24 1030.1
20260510083254 61 222 0.0 0.0 0.00 0.00 0.00 23 1030.1
20260510082757 61 345 0.0 0.0 0.00 0.00 0.00 22 1029.8
20260510082254 62 77 0.0 1.0 0.00 0.00 0.00 22 1029.6
20260510081757 62 259 0.0 2.0 0.00 0.00 0.00 21 1029.9
20260510081257 62 249 0.0 4.0 0.00 0.00 0.00 21 1030.0
20260510080757 62 276 2.0 7.0 0.00 0.00 0.00 21 1030.0
20260510080257 62 43 0.0 2.0 0.00 0.00 0.00 21 1030.0
20260510075758 62 286 2.0 7.0 0.00 0.00 0.00 21 1029.9
20260510075254 62 248 0.0 10.0 0.00 0.00 0.00 21 1030.0
20260510074757 62 259 0.0 3.0 0.00 0.00 0.00 21 1030.1
20260510074257 62 330 0.0 5.0 0.00 0.00 0.00 21 1030.1
20260510073757 62 313 0.0 4.0 0.00 0.00 0.00 21 1030.2
20260510073254 62 324 0.0 1.0 0.00 0.00 0.00 20 1030.2
20260510072754 62 333 0.0 1.0 0.00 0.00 0.00 20 1030.3
20260510072257 62 324 0.0 2.0 0.00 0.00 0.00 20 1030.4
20260510071757 63 279 0.0 3.0 0.00 0.00 0.00 20 1030.5
20260510071257 63 15 2.0 3.0 0.00 0.00 0.00 20 1030.4
20260510070757 63 277 0.0 4.0 0.00 0.00 0.00 20 1030.5
20260510070254 63 319 0.0 9.0 0.00 0.00 0.00 21 1030.5
20260510065754 63 302 0.0 6.0 0.00 0.00 0.00 21 1030.5
20260510065257 63 249 0.0 6.0 0.00 0.00 0.00 21 1030.6
20260510064757 63 212 0.0 7.0 0.00 0.00 0.00 21 1030.6
20260510064254 63 252 0.0 9.0 0.00 0.00 0.00 21 1030.6
20260510063754 63 143 0.0 3.0 0.00 0.00 0.00 21 1030.7
20260510063254 63 302 0.0 7.0 0.00 0.00 0.00 21 1030.8
20260510062754 63 225 0.0 6.0 0.00 0.00 0.00 20 1030.8
20260510062257 63 38 1.0 3.0 0.00 0.00 0.00 21 1030.9
20260510061757 63 358 5.0 6.0 0.00 0.00 0.00 21 1030.9
20260510061257 63 308 0.0 10.0 0.00 0.00 0.00 21 1031.0
20260510060754 63 313 0.0 10.0 0.00 0.00 0.00 21 1031.0
20260510060254 63 327 0.0 10.0 0.00 0.00 0.00 21 1031.1
20260510055754 63 319 2.0 3.0 0.00 0.00 0.00 21 1031.1
20260510055254 63 300 2.0 4.0 0.00 0.00 0.00 21 1031.1
20260510054757 63 311 0.0 12.0 0.00 0.00 0.00 21 1031.1
20260510054257 63 342 6.0 8.0 0.00 0.00 0.00 21 1031.0
20260510053757 63 348 0.0 9.0 0.00 0.00 0.00 21 1031.1
20260510053257 63 359 1.0 11.0 0.00 0.00 0.00 21 1031.1
20260510052754 64 300 4.0 15.0 0.00 0.00 0.00 21 1031.2
20260510052257 64 349 0.0 12.0 0.00 0.00 0.00 21 1031.2
20260510051754 64 307 1.0 12.0 0.00 0.00 0.00 21 1031.2
20260510051254 64 321 5.0 11.0 0.00 0.00 0.00 21 1031.2
20260510050754 64 9 12.0 12.0 0.00 0.00 0.00 21 1031.2
20260510050257 64 259 0.0 12.0 0.00 0.00 0.00 21 1031.3
20260510045757 64 340 0.0 11.0 0.00 0.00 0.00 21 1031.3
20260510045254 64 4 1.0 11.0 0.00 0.00 0.00 21 1031.4
20260510044754 63 11 0.0 9.0 0.00 0.00 0.00 21 1031.4
20260510044254 63 330 0.0 3.0 0.00 0.00 0.00 21 1031.4
20260510043757 64 321 0.0 5.0 0.00 0.00 0.00 21 1031.5
20260510043254 64 11 0.0 11.0 0.00 0.00 0.00 21 1031.5
20260510042754 64 354 2.0 13.0 0.00 0.00 0.00 21 1031.4
20260510042257 64 291 8.0 12.0 0.00 0.00 0.00 21 1031.4
20260510041754 64 357 4.0 6.0 0.00 0.00 0.00 20 1031.3
20260510041254 64 330 1.0 10.0 0.00 0.00 0.00 20 1031.3
20260510040754 64 14 0.0 9.0 0.00 0.00 0.00 20 1031.2
20260510040257 64 27 8.0 12.0 0.00 0.00 0.00 19 1031.3
20260510035754 64 313 0.0 13.0 0.00 0.00 0.00 19 1031.2
20260510035254 64 359 0.0 5.0 0.00 0.00 0.00 18 1031.2
20260510034757 65 313 0.0 1.0 0.00 0.00 0.00 17 1031.2
20260510034254 65 330 0.0 1.0 0.00 0.00 0.00 17 1031.3
20260510033757 65 244 0.0 0.0 0.00 0.00 0.00 16 1031.2
20260510033257 65 328 0.0 1.0 0.00 0.00 0.00 15 1031.2
20260510032754 65 266 0.0 0.0 0.00 0.00 0.00 15 1031.1
20260510032254 65 321 0.0 1.0 0.00 0.00 0.00 14 1031.1
20260510031757 65 8 0.0 0.0 0.00 0.00 0.00 14 1031.1
20260510031254 65 305 0.0 0.0 0.00 0.00 0.00 13 1031.1
20260510030757 66 293 0.0 0.0 0.00 0.00 0.00 13 1031.0
20260510030254 66 349 0.0 1.0 0.00 0.00 0.00 13 1030.9
20260510025757 66 330 0.0 0.0 0.00 0.00 0.00 13 1030.8
20260510025257 66 304 0.0 0.0 0.00 0.00 0.00 13 1030.6
20260510024757 66 330 0.0 0.0 0.00 0.00 0.00 13 1030.5
20260510024257 67 226 0.0 0.0 0.00 0.00 0.00 13 1030.4
20260510023754 67 276 0.0 1.0 0.00 0.00 0.00 12 1030.2
20260510023254 67 340 0.0 4.0 0.00 0.00 0.00 12 1030.2
20260510022757 68 333 0.0 0.0 0.00 0.00 0.00 12 1030.1
20260510022254 68 338 0.0 1.0 0.00 0.00 0.00 12 1030.0
20260510021754 68 249 0.0 1.0 0.00 0.00 0.00 12 1029.9
20260510021257 68 266 0.0 2.0 0.00 0.00 0.00 12 1029.8
20260510020754 68 283 0.0 3.0 0.00 0.00 0.00 12 1029.7
20260510020257 69 229 1.0 1.0 0.00 0.00 0.00 12 1029.6
20260510015757 69 284 0.0 2.0 0.00 0.00 0.00 12 1029.5
20260510015257 69 252 0.0 5.0 0.00 0.00 0.00 12 1029.4
20260510014757 69 244 0.0 3.0 0.00 0.00 0.00 12 1029.3
20260510014257 70 45 0.0 6.0 0.00 0.00 0.00 11 1029.2
20260510013757 70 226 0.0 5.0 0.00 0.00 0.00 11 1029.1
20260510013254 71 261 0.0 7.0 0.00 0.00 0.00 11 1029.1
20260510012754 72 267 0.0 2.0 0.00 0.00 0.00 11 1029.0
20260510012257 73 296 0.0 1.0 0.00 0.00 0.00 11 1029.0
20260510011757 73 281 0.0 0.0 0.00 0.00 0.00 11 1028.9
20260510011257 73 232 0.0 1.0 0.00 0.00 0.00 11 1028.7
20260510010754 73 271 0.0 4.0 0.00 0.00 0.00 11 1028.7
20260510010257 73 229 0.0 7.0 0.00 0.00 0.00 11 1028.6
20260510005757 74 277 0.0 11.0 0.00 0.00 0.00 11 1028.6
20260510005254 74 278 4.0 11.0 0.00 0.00 0.00 11 1028.5
20260510004754 74 333 0.0 3.0 0.00 0.00 0.00 10 1028.5
20260510004254 74 259 0.0 2.0 0.00 0.00 0.00 11 1028.3
20260510003754 74 249 0.0 7.0 0.00 0.00 0.00 11 1028.3
20260510003254 74 250 0.0 12.0 0.00 0.00 0.00 11 1028.2
20260510002754 75 238 4.0 11.0 0.00 0.00 0.00 11 1028.1
20260510002254 75 276 3.0 9.0 0.00 0.00 0.00 10 1028.0
20260510001757 75 262 3.0 6.0 0.00 0.00 0.00 10 1028.1
20260510001257 75 215 0.0 12.0 0.00 0.00 0.00 10 1028.0
20260510000754 75 284 2.0 10.0 0.00 0.00 0.00 10 1028.0
20260510000256 75 278 0.0 6.0 0.00 0.00 0.00 10 1028.0
20260509235757 76 259 0.0 8.0 0.00 0.00 0.00 10 1027.9
20260509235254 75 254 0.0 13.0 0.00 0.00 0.00 10 1027.9
20260509234754 75 291 2.0 26.0 0.00 0.00 0.00 10 1027.8
20260509234254 75 281 5.0 13.0 0.00 0.00 0.00 10 1027.9
20260509233757 74 264 1.0 6.0 0.00 0.00 0.00 10 1027.8
20260509233257 74 264 1.0 14.0 0.00 0.00 0.00 9 1027.6
20260509232757 75 207 11.0 11.0 0.00 0.00 0.00 10 1027.6
20260509232257 74 263 0.0 5.0 0.00 0.00 0.00 10 1027.5
20260509231757 74 249 0.0 6.0 0.00 0.00 0.00 10 1027.5
20260509231257 74 269 4.0 13.0 0.00 0.00 0.00 10 1027.4
20260509230757 75 284 4.0 15.0 0.00 0.00 0.00 9 1027.3
20260509230257 76 219 7.0 18.0 0.00 0.00 0.00 10 1027.1
20260509225757 76 254 11.0 11.0 0.00 0.00 0.00 10 1027.2
20260509225254 76 260 7.0 28.0 0.00 0.00 0.00 10 1027.1
20260509224757 76 218 1.0 13.0 0.00 0.00 0.00 10 1027.0
20260509224257 76 283 1.0 13.0 0.00 0.00 0.00 11 1027.1
20260509223754 76 249 8.0 16.0 0.00 0.00 0.00 11 1027.0
20260509223254 76 335 1.0 13.0 0.00 0.00 0.00 10 1027.0
20260509222757 76 278 0.0 15.0 0.00 0.00 0.00 11 1027.0
20260509222257 77 253 8.0 14.0 0.00 0.00 0.00 10 1027.1
20260509221757 77 291 0.0 15.0 0.00 0.00 0.00 10 1026.8
20260509221254 77 290 1.0 13.0 0.00 0.00 0.00 10 1026.7
20260509220757 77 230 2.0 15.0 0.00 0.00 0.00 10 1026.7
20260509220254 77 311 0.0 7.0 0.00 0.00 0.00 10 1026.7
20260509215757 76 259 0.0 13.0 0.00 0.00 0.00 10 1026.6
20260509215305 77 259 0.0 17.0 0.00 0.00 0.00 10 1026.5
20260509214757 77 287 3.0 15.0 0.00 0.00 0.00 10 1026.6
20260509214257 78 242 3.0 17.0 0.00 0.00 0.00 10 1026.6
20260509213754 78 229 5.0 15.0 0.00 0.00 0.00 10 1026.5
20260509213254 77 240 1.0 7.0 0.00 0.00 0.00 10 1026.4
20260509212757 76 284 7.0 13.0 0.00 0.00 0.00 11 1026.5
20260509212257 76 285 0.0 15.0 0.00 0.00 0.00 10 1026.6
20260509211757 77 279 6.0 17.0 0.00 0.00 0.00 11 1026.7
20260509211257 77 200 5.0 13.0 0.00 0.00 0.00 10 1026.5
20260509210754 78 274 3.0 12.0 0.00 0.00 0.00 11 1026.5
20260509210257 77 277 0.0 8.0 0.00 0.00 0.00 11 1026.5
20260509205754 78 281 8.0 12.0 0.00 0.00 0.00 11 1026.5
20260509205257 78 259 12.0 13.0 0.00 0.00 0.00 11 1026.5
20260509204754 77 255 0.0 12.0 0.00 0.00 0.00 11 1026.5
20260509204257 77 262 1.0 13.0 0.00 0.00 0.00 11 1026.4
20260509203757 77 272 0.0 13.0 0.00 0.00 0.00 11 1026.4
20260509203254 76 317 0.0 8.0 0.00 0.00 0.00 12 1026.5
20260509202757 75 225 0.0 14.0 0.00 0.00 0.00 12 1026.5
20260509202257 74 340 0.0 7.0 0.00 0.00 0.00 12 1026.6
20260509201757 74 232 2.0 7.0 0.00 0.00 0.00 13 1026.6
20260509201257 74 278 0.0 11.0 0.00 0.00 0.00 13 1026.6
20260509200757 73 255 0.0 5.0 0.00 0.00 0.00 13 1026.6
20260509200254 75 252 2.0 11.0 0.00 0.00 0.00 12 1026.7
20260509195757 75 356 4.0 14.0 0.00 0.00 0.00 13 1026.7
20260509195257 74 261 0.0 12.0 0.00 0.00 0.00 12 1026.6
20260509194757 75 263 0.0 7.0 0.00 0.00 0.00 12 1026.5
20260509194254 76 39 0.0 5.0 0.00 0.00 0.00 12 1026.6
20260509193754 76 115 0.0 1.0 0.00 0.00 0.00 12 1026.5
20260509193254 76 244 0.0 9.0 0.00 0.00 0.00 12 1026.6
20260509192754 75 248 0.0 6.0 0.00 0.00 0.00 12 1026.4
20260509192254 75 259 0.0 3.0 0.00 0.00 0.00 12 1026.4
20260509191757 75 190 0.0 2.0 0.00 0.00 0.00 12 1026.5
20260509191257 75 232 0.0 5.0 0.00 0.00 0.00 12 1026.5
20260509190754 74 18 0.0 5.0 0.00 0.00 0.00 13 1026.5
20260509190257 75 281 0.0 5.0 0.00 0.00 0.00 12 1026.5
20260509185757 76 165 2.0 11.0 0.00 0.00 0.00 11 1026.3
20260509185257 75 239 0.0 5.0 0.00 0.00 0.00 13 1026.4
20260509184757 74 243 0.0 1.0 0.00 0.00 0.00 13 1026.6
20260509184257 74 262 0.0 16.0 0.00 0.00 0.00 13 1026.5
20260509183757 75 247 0.0 7.0 0.00 0.00 0.00 12 1026.6
20260509183254 74 250 1.0 6.0 0.00 0.00 0.00 12 1026.7
20260509182757 74 256 0.0 8.0 0.00 0.00 0.00 12 1026.6
20260509182254 75 269 0.0 1.0 0.00 0.00 0.00 13 1026.6
20260509181754 75 250 0.0 1.0 0.00 0.00 0.00 12 1026.6
20260509181257 75 238 1.0 1.0 0.00 0.00 0.00 12 1026.7
20260509180757 74 259 0.0 6.0 0.00 0.00 0.00 12 1026.8
20260509180257 74 238 0.0 10.0 0.00 0.00 0.00 12 1026.7